Location: Zagreb
(45.8000°N, 16.0000°E)
Time: 00:50:27
(UTC+01:00)

Transit 2A Rocket - Pass Details

Date: 04 October 2020
Orbit: 586 x 916 km, 66.7° (Epoch: 28 October)

Event Time Altitude Azimuth Distance (km) Brightness Sun altitude
Rises 14:28:55 0° 149° (SSE) 3,510 8.7 34.5°
Reaches altitude 10° 14:33:30 10° 117° (ESE) 2,602 7.8 34.0°
Maximum altitude 14:35:15 11° 100° (E) 2,513 7.6 33.9°
Drops below altitude 10° 14:37:00 10° 83° (E) 2,609 7.5 33.7°
Sets 14:41:35 0° 52° (NE) 3,538 7.9 33.2°
